Terug naar catalogus

COSMOS 2251 DEB

ActiefVLEO
NORAD 40797·DEBRIS·🇷🇺 Russia

Gelanceerd Jun 16, 1993 vanaf Plesetsk Cosmodrome

Loading…

Volgende Passages (komende 24 uur)

TLE

VerouderdSource: Space-Track

Epoch: Sep 9, 2026, 06:06 UTC

1 40797U 93036BWA 26252.25451251  .00011465  00000-0  52481-3 0  9990
2 40797  73.9304 248.3901 0056197  92.9429 267.8201 15.19124923687425

Volg COSMOS 2251 DEB in realtime met AllMySat

Download on the App Store